sat.trackr.live / text

‹ back to catalog

2024-024C

NORAD 58919 · 2024-024C

PAYLOAD ACTIVE UNKNOWN

§ Identity

Operator
Country
PRC
Launch date
2024-02-03
Launch site
SCSLA
Launch vehicle
Mass (kg)
RCS (m²)

External: N2YO · Heavens-Above · Gunter

§ Orbital elements

Epoch: 2026-05-24T19:53:57.441120Z

Period
91.39 min
Inclination
97.3150°
Eccentricity
0.0004954
Mean motion
15.75668073 rev/d
Perigee alt
339.4 km
Apogee alt
346.1 km
Semi-major
6,720.9 km
B*
9.3072e-4
RAAN
233.3971°
Arg perigee
225.4530°
Mean anomaly
134.6331°
Rev number
12,921

§ Raw data

2024-024C1 58919U 24024C   26144.82913705  .00144092  00000+0  93072-3 0  99992 58919  97.3150 233.3971 0004954 225.4530 134.6331 15.75668073129214

JSON: /api/v1/satellites/58919 · /tle

For live sub-satellite position, see the globe view (requires WebGL).

§ Visibility from observer

Set your observer location to see the next 7 days of passes ≥ 10°. The values pass through the URL so the page stays shareable.

No JS? Fill the form by hand. The geolocation button needs JavaScript.